[[{"header":{"parameterUnit":"m.s-1","parameterCategory":1,"la1":30.2992,"la2":30.254,"lo1":-89.0895,"lo2":-89.0443,"dy":0.0025,"dx":0.0025,"nx":19,"ny":19,"refTime":"2026-04-23T21:00:00:Z","depth":0,"parameterNumber":2,"parameterNumberName":"U-component_of_WINDS"},"data":[0,0,0,-5.5906,-5.5908,-5.6013,-5.6013,-5.6167,-5.6169,0,0,0,0,0,0,0,0,0,0,0,-5.5888,-5.589,-5.5905,-5.5908,-5.6013,-5.6013,-5.6167,-5.6169,0,0,0,0,0,0,0,0,0,0,0,-5.5887,-5.5889,-5.5891,-5.5909,-5.6013,-5.6013,-5.6167,-5.608,0,0,0,0,0,0,0,0,0,0,-5.5975,-5.5972,-5.5889,-5.5891,-5.591,-5.6013,-5.6013,-5.6076,-5.6086,-5.6129,0,-5.6173,0,-5.6174,-5.6181,-5.6181,0,0,0,-5.5898,-5.5964,-5.5981,-5.5892,-5.5911,-5.6013,-5.5963,-5.6081,-5.6092,-5.6143,-5.6175,-5.618,-5.6176,-5.6182,-5.6183,-5.6474,-5.6476,0,0,-5.5892,-5.5914,-5.5973,-5.5989,-5.5975,-5.5959,-5.5966,-5.6087,-5.6123,-5.6175,-5.6183,-5.6179,-5.6183,-5.6184,-5.6472,-5.6475,0,0,0,-5.5882,-5.591,-5.5923,-5.5983,-5.6,-5.5963,-5.597,-5.6118,-5.612,-5.6185,-5.6181,-5.6184,-5.6186,-5.647,-5.6473,-5.6586,0,0,0,-5.5878,-5.5905,-5.5921,-5.5935,-5.5999,-5.6061,-5.5999,-5.6112,-5.6125,-5.618,-5.6184,-5.6188,-5.6468,-5.6472,-5.6578,-5.6634,0,0,0,-5.5877,-5.5904,-5.5924,-5.5936,-5.5983,-5.6058,-5.6067,-5.6114,-5.6123,-5.6181,-5.6188,-5.6467,-5.6471,-5.6571,-5.6623,-5.6716,0,0,0,-5.588,-5.6023,-5.5927,-5.6084,-5.5982,-5.6129,-5.6066,-5.6174,-5.6238,-5.6185,-5.6468,-5.6473,-5.6569,-5.6616,-5.6709,-5.6796,-5.6836,0,0,-5.6072,-5.6046,-5.6137,-5.6055,-5.6224,-5.6111,-5.6296,-5.6333,-5.6318,-5.6423,-5.6429,-5.6581,-5.6622,-5.6714,-5.7053,-5.7085,0,0,0,-5.6205,-5.627,-5.6311,-5.6373,-5.6407,-5.6439,-5.6445,-5.6459,-5.6547,-5.6377,-5.664,-5.6664,-5.6717,-5.6758,-5.6785,-5.6828,-5.6493,-5.6493,-5.6493,-5.6504,-5.648,-5.6628,-5.6616,-5.6678,-5.6685,-5.6732,-5.6752,-5.6707,-5.677,-5.6799,-5.7008,-5.7057,-5.7077,-5.7122,-5.6846,-5.6847,-5.6847,-5.6848,-5.678,-5.6868,-5.6809,-5.6931,-5.6904,-5.7005,-5.7018,-5.6984,-5.7074,-5.6984,-5.7029,-5.693,-5.7112,-5.715,-5.6856,-5.6854,-5.6853,-5.6853,-5.6852,-5.6971,-5.7008,-5.7025,-5.7114,-5.7185,-5.7169,-5.7259,-5.7231,-5.7205,-5.7251,-5.7278,-5.7276,-5.7268,-5.7267,-5.7268,-5.7268,-5.7269,-5.7269,-5.727,-5.716,-5.7176,-5.7255,-5.7305,-5.7342,-5.7387,-5.7398,-5.7433,-5.7465,-5.7437,-5.7437,-5.7386,-5.7136,-5.7072,-5.7281,-5.7279,-5.7277,-5.7276,-5.7276,-5.7443,-5.7376,-5.7499,-5.7537,-5.7592,-5.7665,-5.763,-5.7705,-5.7731,-5.7776,-5.7716,-5.7537,-5.7508,-5.7487,-5.7433,-5.7723,-5.7723,-5.7723,-5.7723,-5.7602,-5.7586,-5.7706,-5.7768,-5.7826,-5.7808,-5.7947,-5.7957,-5.7957,-5.7971,-5.7926,-5.7854,-5.7834,-5.7816,-5.7788,-5.7737,-5.8098,-5.8098,-5.8098,-5.7773,-5.7762,-5.7886,-5.7886,-5.7929,-5.7966,-5.8095,-5.8168,-5.8154,-5.8113,-5.7981,-5.7965,-5.7849,-5.7813,-5.7764,-5.7721,-5.7628,0,0]},{"header":{"parameterUnit":"m.s-1","parameterCategory":1,"la1":30.2992,"la2":30.254,"lo1":-89.0895,"lo2":-89.0443,"dy":0.0025,"dx":0.0025,"nx":19,"ny":19,"refTime":"2026-04-23T21:00:00:Z","depth":0,"parameterNumber":3,"parameterNumberName":"V-component_of_WINDS"},"data":[0,0,0,2.7757,2.7756,2.7737,2.7736,2.7706,2.7705,0,0,0,0,0,0,0,0,0,0,0,2.7761,2.7761,2.7757,2.7756,2.7737,2.7736,2.7706,2.7705,0,0,0,0,0,0,0,0,0,0,0,2.7761,2.7761,2.7761,2.7756,2.7737,2.7736,2.7706,2.7722,0,0,0,0,0,0,0,0,0,0,2.7742,2.7745,2.7761,2.7761,2.7756,2.7737,2.7736,2.7723,2.7721,2.7713,0,2.7707,0,2.7706,2.7703,2.7703,0,0,0,2.7757,2.7747,2.7743,2.7761,2.7756,2.7737,2.7746,2.7722,2.772,2.7711,2.7707,2.7706,2.7706,2.7703,2.7703,2.7661,2.7661,0,0,2.7758,2.7756,2.7745,2.7742,2.7747,2.7746,2.7745,2.7721,2.7716,2.7707,2.7705,2.7705,2.7703,2.7703,2.7661,2.7661,0,0,0,2.7761,2.7757,2.7754,2.7743,2.774,2.7746,2.7744,2.7717,2.7716,2.7705,2.7705,2.7703,2.7702,2.7661,2.7661,2.765,0,0,0,2.7761,2.7759,2.7754,2.7753,2.774,2.7729,2.7741,2.7718,2.7715,2.7705,2.7703,2.7702,2.7662,2.7661,2.7651,2.7644,0,0,0,2.7763,2.7759,2.7756,2.7753,2.7745,2.7729,2.7727,2.7717,2.7715,2.7703,2.7702,2.7662,2.7661,2.7651,2.7645,2.7633,0,0,0,2.7763,2.7744,2.7756,2.7735,2.7745,2.7723,2.7727,2.771,2.7699,2.7702,2.7662,2.7661,2.7652,2.7646,2.7633,2.7621,2.7617,0,0,2.7739,2.7741,2.7729,2.7739,2.7715,2.7726,2.77,2.769,2.7689,2.767,2.7669,2.765,2.7645,2.7633,2.7592,2.7588,0,0,0,2.7721,2.7712,2.7706,2.7697,2.769,2.7684,2.7678,2.7675,2.7659,2.7679,2.7643,2.764,2.7633,2.7627,2.7624,2.7617,2.7659,2.7659,2.7659,2.7682,2.7684,2.7664,2.7665,2.7655,2.7651,2.7643,2.7637,2.764,2.7632,2.7626,2.7601,2.7594,2.7592,2.7585,2.7621,2.762,2.762,2.762,2.7645,2.7632,2.764,2.7624,2.7626,2.7611,2.7607,2.761,2.7595,2.7605,2.7599,2.7609,2.7588,2.7582,2.762,2.762,2.762,2.762,2.762,2.7619,2.7613,2.7611,2.7599,2.7589,2.759,2.7577,2.7579,2.758,2.7574,2.7568,2.7568,2.7568,2.7572,2.7572,2.7572,2.7571,2.7571,2.7571,2.7592,2.759,2.758,2.7573,2.7568,2.7562,2.7559,2.7554,2.7548,2.755,2.755,2.7554,2.7586,2.7594,2.757,2.757,2.757,2.7571,2.7571,2.7551,2.7561,2.7545,2.7541,2.7534,2.7524,2.7528,2.7517,2.7513,2.7506,2.7513,2.7537,2.7538,2.7541,2.7547,2.7513,2.7513,2.7513,2.7513,2.7528,2.7531,2.7516,2.7508,2.7501,2.7504,2.7485,2.7483,2.7482,2.7479,2.7485,2.7494,2.7497,2.7497,2.75,2.7506,2.7462,2.7462,2.7462,2.7503,2.7506,2.7489,2.7491,2.7486,2.7482,2.7464,2.7454,2.7455,2.746,2.7477,2.7479,2.7494,2.7498,2.7501,2.7507,2.7517,0,0]}]]